DELTA 4 R/B, 41746

Orbit data source: Space-Track

DELTA 4 R/B, 41746 is space debris in GEO originally from a launch on Fri, 19 Aug 2016 UTC launched from the Air Force Eastern Test Range (AFETR). Debris objects in space refer to the collection of defunct objects orbiting the Earth. Examples of debris include non-operational satellites, rocket bodies, and fragments generated from explosions, collisions, or faulty payload assembly.

Not visible in the next 10 days
Identifier
41746, 2016-052C
Orbit
GEO
Last TLE update
1 day ago
Origin
Flag of USUnited Launch Alliance/Lockheed Martin (US)
Manufacturer
ULA Decatur
Mission
2))"
Bus & Motor
DCSS-4, RL10B-2
Mass
2,850 kg wet, 2,850 kg dry
Launch date (UTC)
2016-08-19 (9 years ago)
Launch vehicle
Unknown
Launch site
Air Force Eastern Test Range (AFETR)
Object type
Payload
Rocket body
Debris
Shape & HBR
Cyl + 1 Nozzle, Unknown HBR
Radar Cross Section
43.982 m²

Expand to show TLE details & history

TLE from 1 day ago
0 DELTA 4 R/B
1 41746U 16052C   25189.13279977  .00000009  00000-0  00000-0 0  9995
2 41746   7.8957  61.2361 0005899 338.2881  21.6232  0.98990296 22274
Epoch: 2025-07-08T03:11Z
TLE epoch observation values (Epoch: 2025-07-08T03:11:13.9Z)
Latitude
0.00001°
Longitude
87.0343°
Altitude
36,125.941 km
Speed
3.063 km/s
True Right ascension
04h 04m 41s
True Declination
0° 00' 00"
Sunlit
Object was in daylight at epoch
Visualization orbit readout
Latitude
7.19886°
Longitude
-158.04364°
Altitude
36,166.687 km
Speed
3.06 km/s
Apparent Right ascension
11h 41m 47s
Apparent Declination
1° 31' 38"
Sunlit
Object is in daylight
Visualization observer readout
Local Sidereal Time
23:19:25
Azimuth
351.589° N
Elevation
-48.242°
Doppler factor
1
Orbital elements
Apogee altitude
36,175.833 km
Perigee altitude
36,125.657 km
Semi-major axis
42,528.882 km
Eccentricity
0.00059
Inclination
7.8957°
RAAN
61.2361°
Arg. of periapsis
338.2881°
True anomaly
Unknown
Mean anomaly
21.6232°
Eccentric anomaly
Unknown
Mean motion
0.24747 °/min
Orbital period
1,454.74 mins
BSTAR
0
Loading historical data...
41746 neighbors
Loading maneuver chart data...
Loading SW <> Apogee altitude chart data...
Loading historical data...
Loading historical data...
Loading historical data...
Loading historical data...
Loading historical data...
Loading historical data...
Loading historical data...
Other satellites on launch #52 in the year 2016 (2016-08-19 UTC)

DELTA 4 R/B Visibility

Observer location: undefined°, undefined°

DELTA 4 R/B is likely not visible in the next few days
Span
Click to sort rows by Start time (UTC) header in descending order
Start Az.
Max El. time (UTC)
Max El. Az.
Max El.
End time (UTC)
End Az.
|